ONEWEB-0684, 56720

Orbit data source: Space-Track

ONEWEB-0684, 56720 is a payload satellite owned by One Web (NAA) (UK) in LEO that was launched on Sat, 20 May 2023 UTC via an FALCON 9 launch vehicle from the Air Force Western Test Range (AFWTR). Payload-class satellites include a variety of spacecraft equipped with specific instruments for various scientific and technological missions. These include communications satellites like Starlink; space stations such as the ISS; scientific satellites like the Hubble; Earth observation satellites from companies like Planet Labs, Umbra, and HawkEye 360; GPS; miniature CubeSats for education and research; and military/defense satellites.

Loading next visibility...
Identifier
56720, 2023-068L
Orbit
LEO
Country
Flag of UKUK
Related business
Manufacturer
One Web
Mission
Operational Commercial Communications
Bus & Motor
ARROW, Unknown motor
Mass
148 kg wet, ~140 kg dry
Launch date (UTC)
2023-05-20 (3 years ago)
Launch vehicle
FALCON 9
Launch site
Air Force Western Test Range (AFWTR)
Object type
Payload
Rocket body
Debris
Shape & HBR
Trap Box + 2 Pan, 6.7 m
Radar Cross Section
3.464 m², Large (>1 m²)

Expand to show TLE details & history
Last TLE update: 2 days ago

TLE from 2 days ago
0 ONEWEB-0684
1 56720U 23068L   26171.18168964 -.00000015  00000-0 -73140-4 0  9996
2 56720  87.9010 258.5871 0001732 141.5581 218.5673 13.15548792149642
Epoch: 2026-06-20T04:21Z
TLE epoch observation values (Epoch: 2026-06-20T04:21:37.984Z)
Latitude
-0.00004°
Longitude
-75.22116°
Altitude
1,205.692 km
Speed
7.251 km/s
True Right ascension
17h 14m 20s
True Declination
0° 00' 00"
Sunlit
Object was in full shadow at epoch
Visualization orbit readout
Latitude
Unknown
Longitude
Unknown
Altitude
Unknown
Speed
Unknown
Apparent Right ascension
Unknown
Apparent Declination
Unknown
Sunlit
N/A
Visualization observer readout
Local Sidereal Time
21:31:45
Azimuth
Unknown
Elevation
Unknown
Doppler factor
Unknown
Orbital elements
Apogee altitude
1,200.194 km
Perigee altitude
1,197.57 km
Semi-major axis
7,577.019 km
Eccentricity
0.00017
Inclination
87.901°
RAAN
258.5871°
Arg. of periapsis
141.5581°
True anomaly
218.55493°
Mean anomaly
218.5673°
Eccentric anomaly
218.56111°
Mean motion
3.29076 °/min
Orbital period
109.4 mins
BSTAR
-0.00007314
Loading maneuver chart data...
Computing Atmospheric mass density...
Loading historical data...
Loading historical data...
Loading historical data...
Loading historical data...
Loading historical data...
Loading historical data...
Loading historical data...

Documentation

Showing up to 5 results
|